Location: Bacharowice
(49.9333°N, 19.5833°E)
Time: 23:49:42
(UTC+00:00)

RESURS DK-1 - Pass Details

Date: 11 May 2021
Orbit: 553 x 564 km, 69.9° (Epoch: 21 June)

Event Time Altitude Azimuth Distance (km) Brightness Sun altitude
Rises 22:57:45 0° 323° (NW) 2,766 6.6 -21.8°
Reaches altitude 10° 23:00:03 10° 316° (NW) 1,866 5.5 -21.8°
Enters shadow 23:03:34 38° 262° (W) 865 3.1 -21.7°
